Weather History for KICR - October, 2013

Change the Weather History Date:

Wednesday, October 16, 2013

  Actual Average Record
Temperature  
Mean Temperature 46 °F 51 °F  
Max Temperature 57 °F 63 °F 76 °F (2012)
Min Temperature 34 °F 39 °F 34 °F (2011)
Degree Days  
Heating Degree Days 19 15  
Month to date heating degree days 192 189  
Since 1 July heating degree days 247 331  
Cooling Degree Days 0 0  
Month to date cooling degree days 2 9  
Year to date cooling degree days 1014 915  
Moisture  
Dew Point 32 °F    
Average Humidity 66    
Maximum Humidity 96    
Minimum Humidity 35    
Precipitation  
Precipitation 0.00 in 0.05 in 0.01 in (2007)
Month to date precipitation 3.89 0.93  
Year to date precipitation 20.62 19.92  
Sea Level Pressure  
Sea Level Pressure 30.05 in    
Wind  
Wind Speed 7 mph (West)    
Max Wind Speed 14 mph    
Max Gust Speed 17 mph    
Visibility 10 miles    
Events      
T = Trace of Precipitation, MM = Missing Value Source: NWS Daily Summary

Daily Weather History Graph

Daily Weather History Graph

Search for Another Location

Airport or City:

Trip Planner

Search our weather history database for the weather conditions in past years. The results will help you decide how hot, cold, wet, or windy it might be!

Date:

Astronomy

Oct. 16, 2013 Rise Set
Actual Time 7:54 AM CDT 6:54 PM CDT
Civil Twilight 7:26 AM CDT 7:22 PM CDT
Nautical Twilight 6:52 AM CDT 7:56 PM CDT
Astronomical Twilight 6:19 AM CDT 8:29 PM CDT
Moon 5:37 PM CDT (10/16) 5:20 AM CDT (10/16)
Length of Visible Light 11h 56m
Length of Day
10h 59m
Waxing Gibbous, 94% of the Moon is Illuminated
Oct 16
Waxing Gibbous
Oct 18
Full
Oct 26
Last Quarter
Nov 3
New
Nov 9
First Quarter

Hourly Weather History & Observations

Time (CDT) Temp. Windchill Dew Point Humidity Pressure Visibility Wind Dir Wind Speed Gust Speed Precip Events Conditions
12:53 AM 41.0 °F 36.4 °F 37.0 °F 86% 30.17 in 10.0 mi WNW 6.9 mph - N/A   Overcast
1:53 AM 41.0 °F 34.7 °F 37.0 °F 86% 30.16 in 10.0 mi WNW 10.4 mph - N/A   Overcast
2:53 AM 39.0 °F 32.3 °F 35.1 °F 86% 30.15 in 10.0 mi West 10.4 mph - N/A   Overcast
3:53 AM 37.9 °F 32.7 °F 35.1 °F 89% 30.14 in 10.0 mi West 6.9 mph - N/A   Overcast
4:53 AM 36.0 °F 30.3 °F 33.1 °F 89% 30.14 in 10.0 mi West 6.9 mph - N/A   Partly Cloudy
5:53 AM 35.1 °F 30.1 °F 32.0 °F 89% 30.12 in 10.0 mi West 5.8 mph - N/A   Clear
6:53 AM 34.0 °F 28.8 °F 32.0 °F 92% 30.12 in 10.0 mi WSW 5.8 mph - N/A   Clear
7:53 AM 35.1 °F 28.6 °F 30.9 °F 85% 30.12 in 10.0 mi WSW 8.1 mph - N/A   Clear
8:53 AM 37.0 °F 31.6 °F 32.0 °F 82% 30.12 in 10.0 mi SW 6.9 mph - N/A   Clear
9:53 AM 41.0 °F 36.4 °F 34.0 °F 76% 30.11 in 10.0 mi WSW 6.9 mph - N/A   Clear
10:53 AM 46.9 °F - 36.0 °F 66% 30.09 in 10.0 mi West 8.1 mph - N/A   Clear
11:53 AM 50.0 °F - 32.0 °F 50% 30.08 in 10.0 mi WNW 10.4 mph - N/A   Clear
12:53 PM 52.0 °F - 33.1 °F 49% 30.06 in 10.0 mi West 9.2 mph - N/A   Clear
1:53 PM 53.1 °F - 32.0 °F 45% 30.03 in 10.0 mi WSW 9.2 mph - N/A   Clear
2:53 PM 55.0 °F - 32.0 °F 42% 30.00 in 10.0 mi WNW 5.8 mph - N/A   Clear
3:53 PM 57.0 °F - 30.0 °F 36% 29.97 in 10.0 mi WNW 8.1 mph - N/A   Clear
4:53 PM 55.9 °F - 28.9 °F 36% 29.97 in 10.0 mi West 9.2 mph - N/A   Clear
5:53 PM 55.0 °F - 30.9 °F 40% 29.96 in 10.0 mi West 5.8 mph - N/A   Clear
6:53 PM 53.1 °F - 28.9 °F 40% 29.96 in 10.0 mi Calm Calm - N/A   Clear
7:53 PM 48.0 °F - 30.0 °F 50% 29.95 in 10.0 mi SSW 3.5 mph - N/A   Clear
8:53 PM 46.0 °F 43.9 °F 30.9 °F 56% 29.95 in 10.0 mi SW 4.6 mph - N/A   Clear
9:53 PM 42.1 °F 38.4 °F 30.9 °F 65% 29.95 in 10.0 mi WSW 5.8 mph - N/A   Clear
10:53 PM 42.1 °F 37.1 °F 30.9 °F 65% 29.94 in 10.0 mi WSW 8.1 mph - N/A   Clear
11:53 PM 41.0 °F 35.8 °F 30.9 °F 67% 29.93 in 10.0 mi WSW 8.1 mph - N/A   Clear